| time (UTC) | temp F | wind direction | speed knots | gust knots | rain 1hr in | rain 24hr in | rain mn in | humidity % | barometer mb |
| 20260507141427 | 67 | 104 | 2.6 | 4.3 | 0.00 | 0.00 | 0.00 | 65 | 1013.0 |
| 20260507140927 | 67 | 99 | 2.6 | 4.3 | 0.00 | 0.00 | 0.00 | 66 | 1013.0 |
| 20260507140429 | 67 | 79 | 2.6 | 5.2 | 0.00 | 0.00 | 0.00 | 66 | 1013.0 |
| 20260507135929 | 66 | 107 | 1.7 | 4.3 | 0.00 | 0.00 | 0.00 | 66 | 1013.0 |
| 20260507135428 | 66 | 106 | 1.7 | 4.3 | 0.00 | 0.00 | 0.00 | 66 | 1013.0 |
| 20260507134928 | 66 | 114 | 1.7 | 4.3 | 0.00 | 0.00 | 0.00 | 66 | 1013.0 |
| 20260507134428 | 66 | 156 | 2.6 | 4.3 | 0.00 | 0.00 | 0.00 | 66 | 1013.0 |
| 20260507133929 | 66 | 123 | 2.6 | 4.3 | 0.00 | 0.00 | 0.00 | 66 | 1013.0 |
| 20260507133428 | 66 | 124 | 2.6 | 1.7 | 0.00 | 0.00 | 0.00 | 66 | 1013.0 |
| 20260507132927 | 66 | 70 | 1.7 | 4.3 | 0.00 | 0.00 | 0.00 | 66 | 1012.0 |
| 20260507132427 | 66 | 128 | 2.6 | 5.2 | 0.00 | 0.00 | 0.00 | 66 | 1012.0 |
| 20260507131927 | 66 | 92 | 2.6 | 5.2 | 0.00 | 0.00 | 0.00 | 66 | 1012.0 |
| 20260507131428 | 66 | 58 | 2.6 | 4.3 | 0.00 | 0.00 | 0.00 | 66 | 1013.0 |
| 20260507130927 | 66 | 108 | 2.6 | 5.2 | 0.00 | 0.00 | 0.00 | 66 | 1013.0 |
| 20260507130427 | 66 | 68 | 1.7 | 2.6 | 0.00 | 0.00 | 0.00 | 66 | 1013.0 |
| 20260507125928 | 66 | 112 | 2.6 | 5.2 | 0.00 | 0.00 | 0.00 | 66 | 1013.0 |
| 20260507125512 | 66 | 120 | 2.6 | 6.1 | 0.00 | 0.00 | 0.00 | 66 | 1013.0 |
| 20260507125429 | 66 | 120 | 2.6 | 6.1 | 0.00 | 0.00 | 0.00 | 66 | 1013.0 |
| 20260507124929 | 66 | 339 | 2.6 | 2.6 | 0.00 | 0.00 | 0.00 | 66 | 1013.0 |
| 20260507124428 | 66 | 4 | 1.7 | 5.2 | 0.00 | 0.00 | 0.00 | 67 | 1013.0 |
| 20260507123928 | 66 | 112 | 1.7 | 5.2 | 0.00 | 0.00 | 0.00 | 67 | 1013.0 |
| 20260507123428 | 66 | 118 | 2.6 | 2.6 | 0.00 | 0.00 | 0.00 | 67 | 1013.0 |
| 20260507122928 | 66 | 168 | 5.2 | 7.0 | 0.00 | 0.00 | 0.00 | 66 | 1014.0 |
| 20260507122428 | 66 | 32 | 1.7 | 2.6 | 0.00 | 0.00 | 0.00 | 66 | 1014.0 |
| 20260507121930 | 66 | 90 | 1.7 | 4.3 | 0.00 | 0.00 | 0.00 | 67 | 1014.0 |
| 20260507121429 | 66 | 81 | 0.9 | 1.7 | 0.00 | 0.00 | 0.00 | 67 | 1014.0 |
| 20260507121427 | 66 | 81 | 0.9 | 1.7 | 0.00 | 0.00 | 0.00 | 67 | 1014.0 |
| 20260507120927 | 66 | 126 | 2.6 | 4.3 | 0.00 | 0.00 | 0.00 | 67 | 1014.0 |
| 20260507120429 | 66 | 117 | 2.6 | 4.3 | 0.00 | 0.00 | 0.00 | 67 | 1014.0 |
| 20260507115928 | 65 | 93 | 0.9 | 1.7 | 0.00 | 0.00 | 0.00 | 67 | 1014.0 |
| 20260507115428 | 65 | 112 | 2.6 | 5.2 | 0.00 | 0.00 | 0.00 | 67 | 1014.0 |
| 20260507114928 | 65 | 105 | 2.6 | 4.3 | 0.00 | 0.00 | 0.00 | 67 | 1014.0 |
| 20260507114428 | 65 | 164 | 2.6 | 6.1 | 0.00 | 0.00 | 0.00 | 68 | 1014.0 |
| 20260507113928 | 65 | 121 | 1.7 | 4.3 | 0.00 | 0.00 | 0.00 | 67 | 1014.0 |
| 20260507113427 | 65 | 112 | 0.9 | 1.7 | 0.00 | 0.00 | 0.00 | 67 | 1014.0 |
| 20260507112928 | 64 | 112 | 1.7 | 1.7 | 0.00 | 0.00 | 0.00 | 67 | 1014.0 |
| 20260507112427 | 64 | 155 | 2.6 | 6.1 | 0.00 | 0.00 | 0.00 | 67 | 1014.0 |
| 20260507111929 | 64 | 114 | 1.7 | 4.3 | 0.00 | 0.00 | 0.00 | 67 | 1014.0 |
| 20260507111429 | 64 | 68 | 1.7 | 2.6 | 0.00 | 0.00 | 0.00 | 67 | 1013.0 |
| 20260507110928 | 64 | 292 | 1.7 | 4.3 | 0.00 | 0.00 | 0.00 | 67 | 1013.0 |
| 20260507110429 | 64 | 3 | 2.6 | 2.6 | 0.00 | 0.00 | 0.00 | 68 | 1013.0 |
| 20260507105928 | 64 | 74 | 1.7 | 5.2 | 0.00 | 0.00 | 0.00 | 68 | 1013.0 |
| 20260507105428 | 64 | 112 | 4.3 | 4.3 | 0.00 | 0.00 | 0.00 | 68 | 1013.0 |
| 20260507104928 | 64 | 0 | 0.9 | 0.9 | 0.00 | 0.00 | 0.00 | 68 | 1013.0 |
| 20260507104428 | 63 | 167 | 1.7 | 2.6 | 0.00 | 0.00 | 0.00 | 68 | 1013.0 |
| 20260507103928 | 63 | 155 | 6.1 | 7.0 | 0.00 | 0.00 | 0.00 | 68 | 1013.0 |
| 20260507103428 | 63 | 89 | 0.9 | 4.3 | 0.00 | 0.00 | 0.00 | 67 | 1013.0 |
| 20260507102928 | 63 | 69 | 0.9 | 1.7 | 0.00 | 0.00 | 0.00 | 67 | 1012.0 |
| 20260507102427 | 63 | 104 | 1.7 | 4.3 | 0.00 | 0.00 | 0.00 | 68 | 1012.0 |
| 20260507101927 | 63 | 90 | 0.9 | 0.9 | 0.00 | 0.00 | 0.00 | 68 | 1012.0 |
| 20260507101429 | 63 | 112 | 2.6 | 2.6 | 0.00 | 0.00 | 0.00 | 68 | 1012.0 |
| 20260507100928 | 63 | 47 | 0.9 | 1.7 | 0.00 | 0.00 | 0.00 | 68 | 1012.0 |
| 20260507100428 | 62 | 162 | 2.6 | 5.2 | 0.00 | 0.00 | 0.00 | 69 | 1012.0 |
| 20260507095928 | 62 | 139 | 1.7 | 4.3 | 0.00 | 0.00 | 0.00 | 68 | 1013.0 |
| 20260507095428 | 62 | 158 | 0.9 | 4.3 | 0.00 | 0.00 | 0.00 | 68 | 1013.0 |
| 20260507094928 | 62 | 112 | 1.7 | 2.6 | 0.00 | 0.00 | 0.00 | 68 | 1013.0 |
| 20260507094428 | 62 | 0 | 1.7 | 0.9 | 0.00 | 0.00 | 0.00 | 68 | 1013.0 |
| 20260507093929 | 62 | 45 | 1.7 | 1.7 | 0.00 | 0.00 | 0.00 | 68 | 1013.0 |
| 20260507093428 | 62 | 112 | 0.9 | 0.9 | 0.00 | 0.00 | 0.00 | 68 | 1013.0 |
| 20260507092927 | 61 | 127 | 0.9 | 2.6 | 0.00 | 0.00 | 0.00 | 68 | 1013.0 |
| 20260507092428 | 61 | 105 | 2.6 | 1.7 | 0.00 | 0.00 | 0.00 | 68 | 1013.0 |
| 20260507091927 | 61 | 37 | 1.7 | 1.7 | 0.00 | 0.00 | 0.00 | 68 | 1013.0 |
| 20260507091427 | 61 | 90 | 0.9 | 1.7 | 0.00 | 0.00 | 0.00 | 68 | 1013.0 |
| 20260507090929 | 61 | 135 | 1.7 | 2.6 | 0.00 | 0.00 | 0.00 | 68 | 1013.0 |
| 20260507090428 | 61 | 158 | 0.9 | 1.7 | 0.00 | 0.00 | 0.00 | 69 | 1013.0 |
| 20260507085928 | 61 | 159 | 1.7 | 1.7 | 0.00 | 0.00 | 0.00 | 69 | 1013.0 |
| 20260507085428 | 60 | 171 | 0.9 | 2.6 | 0.00 | 0.00 | 0.00 | 69 | 1013.0 |
| 20260507084928 | 60 | 135 | 0.9 | 0.0 | 0.00 | 0.00 | 0.00 | 69 | 1013.0 |
| 20260507084428 | 60 | 135 | 0.9 | 0.0 | 0.00 | 0.00 | 0.00 | 69 | 1013.0 |
| 20260507083928 | 60 | 184 | 1.7 | 5.2 | 0.00 | 0.00 | 0.00 | 69 | 1013.0 |
| 20260507083428 | 60 | 152 | 0.9 | 2.6 | 0.00 | 0.00 | 0.00 | 69 | 1013.0 |
| 20260507082927 | 59 | 173 | 2.6 | 2.6 | 0.00 | 0.00 | 0.00 | 69 | 1012.0 |
| 20260507082427 | 59 | 181 | 0.9 | 1.7 | 0.00 | 0.00 | 0.00 | 69 | 1012.0 |
| 20260507081927 | 59 | 163 | 0.9 | 1.7 | 0.00 | 0.00 | 0.00 | 69 | 1012.0 |
| 20260507081427 | 59 | 161 | 0.9 | 1.7 | 0.00 | 0.00 | 0.00 | 69 | 1013.0 |
| 20260507080927 | 59 | 147 | 1.7 | 1.7 | 0.00 | 0.00 | 0.00 | 69 | 1013.0 |
| 20260507080427 | 59 | 133 | 2.6 | 4.3 | 0.00 | 0.00 | 0.00 | 69 | 1013.0 |
| 20260507075929 | 58 | 176 | 0.9 | 2.6 | 0.00 | 0.00 | 0.00 | 69 | 1013.0 |
| 20260507075428 | 58 | 177 | 1.7 | 4.3 | 0.00 | 0.00 | 0.00 | 70 | 1013.0 |
| 20260507074928 | 58 | 178 | 1.7 | 2.6 | 0.00 | 0.00 | 0.00 | 70 | 1013.0 |
| 20260507074428 | 58 | 165 | 1.7 | 0.9 | 0.00 | 0.00 | 0.00 | 70 | 1014.0 |
| 20260507073928 | 57 | 171 | 0.9 | 2.6 | 0.00 | 0.00 | 0.00 | 70 | 1014.0 |
| 20260507073428 | 57 | 179 | 0.0 | 1.7 | 0.00 | 0.00 | 0.00 | 70 | 1014.0 |
| 20260507072928 | 56 | 139 | 0.0 | 1.7 | 0.00 | 0.00 | 0.00 | 70 | 1015.0 |
| 20260507072428 | 56 | 165 | 0.9 | 1.7 | 0.00 | 0.00 | 0.00 | 70 | 1015.0 |
| 20260507071928 | 55 | 135 | 1.7 | 1.7 | 0.00 | 0.00 | 0.00 | 70 | 1015.0 |
| 20260507071427 | 55 | 135 | 0.9 | 1.7 | 0.00 | 0.00 | 0.00 | 71 | 1014.0 |
| 20260507070927 | 54 | 135 | 0.0 | 0.9 | 0.00 | 0.00 | 0.00 | 71 | 1014.0 |
| 20260507070427 | 54 | 135 | 0.0 | 0.9 | 0.00 | 0.00 | 0.00 | 71 | 1014.0 |
| 20260507065927 | 53 | 135 | 0.0 | 0.0 | 0.00 | 0.00 | 0.00 | 71 | 1016.0 |
| 20260507065429 | 53 | 135 | 0.9 | 0.9 | 0.00 | 0.00 | 0.00 | 71 | 1016.0 |
| 20260507064928 | 52 | 135 | 0.9 | 0.9 | 0.00 | 0.00 | 0.00 | 71 | 1016.0 |
| 20260507064428 | 51 | 197 | 0.9 | 0.9 | 0.00 | 0.00 | 0.00 | 71 | 1017.0 |
| 20260507063928 | 51 | 292 | 0.0 | 0.0 | 0.00 | 0.00 | 0.00 | 71 | 1017.0 |
| 20260507063428 | 50 | 292 | 0.0 | 0.9 | 0.00 | 0.00 | 0.00 | 71 | 1017.0 |
| 20260507062928 | 50 | 135 | 0.0 | 0.0 | 0.00 | 0.00 | 0.00 | 71 | 1018.0 |
| 20260507062428 | 49 | 135 | 0.0 | 0.0 | 0.00 | 0.00 | 0.00 | 70 | 1018.0 |
| 20260507061927 | 49 | 135 | 0.0 | 0.0 | 0.00 | 0.00 | 0.00 | 70 | 1018.0 |
| 20260507061428 | 48 | 135 | 0.0 | 0.0 | 0.00 | 0.00 | 0.00 | 70 | 1019.0 |
| 20260507060927 | 48 | 135 | 0.0 | 0.0 | 0.00 | 0.00 | 0.00 | 70 | 1019.0 |
| 20260507060427 | 47 | 135 | 0.0 | 0.0 | 0.00 | 0.00 | 0.00 | 70 | 1019.0 |
| 20260507055927 | 47 | 135 | 0.0 | 0.0 | 0.00 | 0.00 | 0.00 | 70 | 1019.0 |
| 20260507055429 | 47 | 135 | 0.0 | 0.0 | 0.00 | 0.00 | 0.00 | 70 | 1019.0 |
| 20260507054928 | 47 | 135 | 0.0 | 0.0 | 0.00 | 0.00 | 0.00 | 70 | 1019.0 |
| 20260507054428 | 47 | 135 | 0.0 | 0.0 | 0.00 | 0.00 | 0.00 | 69 | 1019.0 |
| 20260507053928 | 46 | 135 | 0.0 | 0.0 | 0.00 | 0.00 | 0.00 | 69 | 1019.0 |
| 20260507053428 | 46 | 135 | 0.0 | 0.0 | 0.00 | 0.00 | 0.00 | 69 | 1019.0 |
| 20260507052928 | 46 | 135 | 0.0 | 0.0 | 0.00 | 0.00 | 0.00 | 69 | 1019.0 |
| 20260507052428 | 46 | 135 | 0.0 | 0.0 | 0.00 | 0.00 | 0.00 | 69 | 1019.0 |
| 20260507051928 | 46 | 22 | 0.0 | 0.0 | 0.00 | 0.00 | 0.00 | 69 | 1019.0 |
| 20260507051427 | 46 | 22 | 0.0 | 0.0 | 0.00 | 0.00 | 0.00 | 69 | 1019.0 |
| 20260507050927 | 46 | 22 | 0.0 | 0.0 | 0.00 | 0.00 | 0.00 | 69 | 1019.0 |
| 20260507050427 | 46 | 22 | 0.0 | 0.0 | 0.00 | 0.00 | 0.00 | 69 | 1019.0 |
| 20260507045929 | 46 | 22 | 0.0 | 0.0 | 0.00 | 0.00 | 0.00 | 69 | 1019.0 |
| 20260507045428 | 46 | 22 | 0.9 | 0.9 | 0.00 | 0.00 | 0.00 | 69 | 1019.0 |
| 20260507044928 | 46 | 339 | 0.0 | 0.9 | 0.00 | 0.00 | 0.00 | 69 | 1019.0 |
| 20260507044428 | 46 | 248 | 0.0 | 0.0 | 0.00 | 0.00 | 0.00 | 69 | 1019.0 |
| 20260507043927 | 46 | 248 | 0.0 | 0.0 | 0.00 | 0.00 | 0.00 | 69 | 1019.0 |
| 20260507043427 | 46 | 248 | 0.0 | 0.0 | 0.00 | 0.00 | 0.00 | 69 | 1019.0 |
| 20260507042927 | 46 | 248 | 0.0 | 0.0 | 0.00 | 0.00 | 0.00 | 69 | 1019.0 |
| 20260507042429 | 46 | 248 | 0.0 | 0.0 | 0.00 | 0.00 | 0.00 | 69 | 1019.0 |
| 20260507041929 | 46 | 248 | 0.0 | 0.0 | 0.00 | 0.00 | 0.00 | 69 | 1019.0 |
| 20260507041429 | 46 | 248 | 0.0 | 0.0 | 0.00 | 0.00 | 0.00 | 69 | 1019.0 |
| 20260507040928 | 47 | 248 | 0.0 | 0.0 | 0.00 | 0.00 | 0.00 | 69 | 1019.0 |
| 20260507040428 | 47 | 248 | 0.0 | 0.0 | 0.00 | 0.00 | 0.00 | 69 | 1019.0 |
| 20260507035928 | 47 | 248 | 0.0 | 0.0 | 0.00 | 0.00 | 0.00 | 69 | 1019.0 |
| 20260507035428 | 47 | 248 | 0.0 | 0.0 | 0.00 | 0.00 | 0.00 | 69 | 1019.0 |
| 20260507034928 | 47 | 248 | 0.0 | 0.0 | 0.00 | 0.00 | 0.00 | 69 | 1019.0 |
| 20260507034428 | 47 | 248 | 0.0 | 0.0 | 0.00 | 0.00 | 0.00 | 69 | 1019.0 |
| 20260507033928 | 47 | 248 | 0.0 | 0.0 | 0.00 | 0.00 | 0.00 | 69 | 1019.0 |
| 20260507033428 | 47 | 248 | 0.0 | 0.0 | 0.00 | 0.00 | 0.00 | 69 | 1019.0 |
| 20260507032927 | 47 | 248 | 0.0 | 0.0 | 0.00 | 0.00 | 0.00 | 69 | 1018.0 |
| 20260507032427 | 47 | 248 | 0.0 | 0.0 | 0.00 | 0.00 | 0.00 | 69 | 1018.0 |
| 20260507031927 | 47 | 248 | 0.0 | 0.0 | 0.00 | 0.00 | 0.00 | 69 | 1018.0 |
| 20260507031427 | 47 | 248 | 0.0 | 0.0 | 0.00 | 0.00 | 0.00 | 69 | 1019.0 |
| 20260507030929 | 47 | 248 | 0.0 | 0.0 | 0.00 | 0.00 | 0.00 | 69 | 1019.0 |
| 20260507030429 | 47 | 248 | 0.0 | 0.0 | 0.00 | 0.00 | 0.00 | 69 | 1019.0 |
| 20260507025929 | 47 | 248 | 0.0 | 0.0 | 0.00 | 0.00 | 0.00 | 69 | 1018.0 |
| 20260507025428 | 47 | 248 | 0.0 | 0.0 | 0.00 | 0.00 | 0.00 | 68 | 1018.0 |
| 20260507024928 | 47 | 248 | 0.0 | 0.0 | 0.00 | 0.00 | 0.00 | 68 | 1018.0 |
| 20260507024428 | 47 | 248 | 0.0 | 0.0 | 0.00 | 0.00 | 0.00 | 68 | 1019.0 |
| 20260507023928 | 48 | 248 | 0.0 | 0.0 | 0.00 | 0.00 | 0.00 | 68 | 1019.0 |
| 20260507023428 | 48 | 248 | 0.0 | 0.0 | 0.00 | 0.00 | 0.00 | 68 | 1019.0 |
| 20260507022928 | 48 | 248 | 0.0 | 0.0 | 0.00 | 0.00 | 0.00 | 68 | 1019.0 |
| 20260507022428 | 48 | 248 | 0.0 | 0.0 | 0.00 | 0.00 | 0.00 | 68 | 1019.0 |
| 20260507021928 | 48 | 248 | 0.0 | 0.0 | 0.00 | 0.00 | 0.00 | 69 | 1019.0 |
| 20260507021428 | 48 | 248 | 0.0 | 0.0 | 0.00 | 0.00 | 0.00 | 68 | 1019.0 |
| 20260507020928 | 48 | 248 | 0.0 | 0.0 | 0.00 | 0.00 | 0.00 | 68 | 1019.0 |
| 20260507020428 | 48 | 248 | 0.0 | 0.0 | 0.00 | 0.00 | 0.00 | 68 | 1019.0 |
| 20260507015927 | 49 | 248 | 0.0 | 0.0 | 0.00 | 0.00 | 0.00 | 68 | 1019.0 |
| 20260507015427 | 49 | 248 | 0.0 | 0.0 | 0.00 | 0.00 | 0.00 | 69 | 1019.0 |
| 20260507014929 | 49 | 248 | 0.0 | 0.0 | 0.00 | 0.00 | 0.00 | 69 | 1019.0 |
| 20260507014430 | 49 | 292 | 0.0 | 0.9 | 0.00 | 0.00 | 0.00 | 69 | 1019.0 |
| 20260507013928 | 49 | 300 | 0.9 | 1.7 | 0.00 | 0.00 | 0.00 | 69 | 1019.0 |
| 20260507013428 | 49 | 283 | 0.9 | 1.7 | 0.00 | 0.00 | 0.00 | 68 | 1019.0 |
| 20260507012928 | 49 | 270 | 0.0 | 0.9 | 0.00 | 0.00 | 0.00 | 68 | 1019.0 |
| 20260507012428 | 49 | 270 | 0.0 | 0.9 | 0.00 | 0.00 | 0.00 | 68 | 1019.0 |
| 20260507011927 | 49 | 270 | 0.0 | 0.9 | 0.00 | 0.00 | 0.00 | 68 | 1019.0 |
| 20260507011427 | 49 | 270 | 0.9 | 0.9 | 0.00 | 0.00 | 0.00 | 68 | 1018.0 |
| 20260507010929 | 49 | 289 | 0.9 | 0.9 | 0.00 | 0.00 | 0.00 | 68 | 1018.0 |
| 20260507010429 | 49 | 270 | 0.9 | 0.9 | 0.00 | 0.00 | 0.00 | 68 | 1018.0 |
| 20260507005928 | 49 | 292 | 0.9 | 1.7 | 0.00 | 0.00 | 0.00 | 68 | 1018.0 |
| 20260507005428 | 49 | 288 | 1.7 | 1.7 | 0.00 | 0.00 | 0.00 | 68 | 1018.0 |
| 20260507004928 | 49 | 270 | 0.9 | 1.7 | 0.00 | 0.00 | 0.00 | 68 | 1018.0 |
| 20260507004428 | 49 | 292 | 0.0 | 0.9 | 0.00 | 0.00 | 0.00 | 68 | 1018.0 |
| 20260507003928 | 49 | 292 | 0.0 | 0.9 | 0.00 | 0.00 | 0.00 | 68 | 1018.0 |
| 20260507003428 | 49 | 269 | 0.9 | 0.9 | 0.00 | 0.00 | 0.00 | 68 | 1018.0 |
| 20260507002928 | 49 | 276 | 1.7 | 1.7 | 0.00 | 0.00 | 0.00 | 68 | 1019.0 |
| 20260507002427 | 49 | 282 | 0.9 | 1.7 | 0.00 | 0.00 | 0.00 | 68 | 1019.0 |
| 20260507001929 | 49 | 270 | 0.9 | 1.7 | 0.00 | 0.00 | 0.00 | 68 | 1019.0 |
| 20260507001429 | 50 | 288 | 0.9 | 1.7 | 0.00 | 0.00 | 0.00 | 68 | 1019.0 |
| 20260507000929 | 50 | 263 | 0.9 | 0.9 | 0.00 | 0.00 | 0.00 | 68 | 1019.0 |
| 20260507000428 | 50 | 248 | 0.9 | 0.9 | 0.00 | 0.00 | 0.00 | 68 | 1019.0 |
| 20260506235928 | 50 | 270 | 0.9 | 0.9 | 0.00 | 0.00 | 0.00 | 69 | 1019.0 |
| 20260506235428 | 50 | 248 | 0.9 | 0.9 | 0.00 | 0.00 | 0.00 | 69 | 1019.0 |
| 20260506234928 | 50 | 256 | 1.7 | 1.7 | 0.00 | 0.00 | 0.00 | 69 | 1019.0 |
| 20260506234428 | 50 | 282 | 1.7 | 4.3 | 0.00 | 0.00 | 0.00 | 68 | 1019.0 |
| 20260506233928 | 50 | 278 | 1.7 | 1.7 | 0.00 | 0.00 | 0.00 | 68 | 1019.0 |
| 20260506233428 | 50 | 292 | 0.9 | 1.7 | 0.00 | 0.00 | 0.00 | 68 | 1019.0 |
| 20260506232928 | 50 | 270 | 0.9 | 0.9 | 0.00 | 0.00 | 0.00 | 68 | 1019.0 |
| 20260506232428 | 50 | 292 | 0.0 | 0.9 | 0.00 | 0.00 | 0.00 | 68 | 1019.0 |
| 20260506231927 | 50 | 292 | 0.0 | 0.9 | 0.00 | 0.00 | 0.00 | 68 | 1019.0 |
| 20260506231427 | 50 | 292 | 0.0 | 0.0 | 0.00 | 0.00 | 0.00 | 68 | 1018.0 |
| 20260506230927 | 50 | 292 | 0.0 | 0.0 | 0.00 | 0.00 | 0.00 | 68 | 1018.0 |
| 20260506230427 | 50 | 270 | 0.9 | 0.9 | 0.00 | 0.00 | 0.00 | 68 | 1018.0 |
| 20260506225927 | 50 | 248 | 0.0 | 0.9 | 0.00 | 0.00 | 0.00 | 68 | 1019.0 |
| 20260506225427 | 51 | 248 | 0.0 | 0.9 | 0.00 | 0.00 | 0.00 | 68 | 1019.0 |
| 20260506224927 | 51 | 248 | 0.0 | 0.9 | 0.00 | 0.00 | 0.00 | 68 | 1019.0 |
| 20260506224427 | 51 | 225 | 0.0 | 0.9 | 0.00 | 0.00 | 0.00 | 68 | 1019.0 |
| 20260506223929 | 51 | 270 | 0.9 | 0.9 | 0.00 | 0.00 | 0.00 | 68 | 1019.0 |
| 20260506223429 | 51 | 292 | 0.9 | 0.9 | 0.00 | 0.00 | 0.00 | 68 | 1019.0 |
| 20260506222929 | 51 | 287 | 0.9 | 1.7 | 0.00 | 0.00 | 0.00 | 68 | 1019.0 |
| 20260506222428 | 51 | 277 | 0.9 | 1.7 | 0.00 | 0.00 | 0.00 | 68 | 1019.0 |
| 20260506221928 | 51 | 270 | 0.9 | 0.9 | 0.00 | 0.00 | 0.00 | 68 | 1019.0 |
| 20260506221428 | 51 | 292 | 0.0 | 0.9 | 0.00 | 0.00 | 0.00 | 68 | 1019.0 |
| 20260506220928 | 52 | 235 | 0.0 | 0.9 | 0.00 | 0.00 | 0.00 | 68 | 1019.0 |
| 20260506220428 | 52 | 270 | 0.0 | 2.6 | 0.00 | 0.00 | 0.00 | 68 | 1019.0 |
| 20260506215928 | 52 | 270 | 0.9 | 2.6 | 0.00 | 0.00 | 0.00 | 67 | 1019.0 |
| 20260506215428 | 52 | 292 | 0.9 | 0.9 | 0.00 | 0.00 | 0.00 | 67 | 1019.0 |
| 20260506214928 | 52 | 255 | 0.9 | 1.7 | 0.00 | 0.00 | 0.00 | 67 | 1019.0 |
| 20260506214428 | 52 | 315 | 0.0 | 0.0 | 0.00 | 0.00 | 0.00 | 67 | 1019.0 |
| 20260506213928 | 52 | 315 | 1.7 | 0.9 | 0.00 | 0.00 | 0.00 | 67 | 1019.0 |
| 20260506213427 | 53 | 270 | 0.9 | 0.9 | 0.00 | 0.00 | 0.00 | 67 | 1019.0 |
| 20260506212927 | 53 | 261 | 0.0 | 0.9 | 0.00 | 0.00 | 0.00 | 68 | 1019.0 |
| 20260506212427 | 53 | 286 | 0.9 | 1.7 | 0.00 | 0.00 | 0.00 | 68 | 1019.0 |
| 20260506211927 | 53 | 279 | 1.7 | 5.2 | 0.00 | 0.00 | 0.00 | 68 | 1019.0 |
| 20260506211427 | 53 | 292 | 0.9 | 1.7 | 0.00 | 0.00 | 0.00 | 68 | 1018.0 |
| 20260506210929 | 53 | 299 | 0.9 | 1.7 | 0.00 | 0.00 | 0.00 | 68 | 1018.0 |
| 20260506210428 | 53 | 296 | 0.9 | 2.6 | 0.00 | 0.00 | 0.00 | 68 | 1018.0 |
| 20260506205928 | 54 | 292 | 0.9 | 1.7 | 0.00 | 0.00 | 0.00 | 67 | 1018.0 |
| 20260506205428 | 54 | 324 | 1.7 | 1.7 | 0.00 | 0.00 | 0.00 | 68 | 1018.0 |
| 20260506204928 | 54 | 282 | 1.7 | 1.7 | 0.00 | 0.00 | 0.00 | 68 | 1018.0 |
| 20260506204428 | 54 | 259 | 2.6 | 2.6 | 0.00 | 0.00 | 0.00 | 68 | 1018.0 |
| 20260506203928 | 54 | 317 | 1.7 | 1.7 | 0.00 | 0.00 | 0.00 | 68 | 1018.0 |
| 20260506203427 | 54 | 315 | 1.7 | 2.6 | 0.00 | 0.00 | 0.00 | 68 | 1018.0 |
| 20260506202927 | 54 | 281 | 0.9 | 1.7 | 0.00 | 0.00 | 0.00 | 67 | 1017.0 |
| 20260506202427 | 54 | 248 | 0.0 | 0.9 | 0.00 | 0.00 | 0.00 | 67 | 1017.0 |
| 20260506201929 | 54 | 267 | 0.9 | 2.6 | 0.00 | 0.00 | 0.00 | 67 | 1017.0 |
| 20260506201428 | 54 | 279 | 0.9 | 1.7 | 0.00 | 0.00 | 0.00 | 67 | 1017.0 |
| 20260506200928 | 54 | 272 | 0.9 | 2.6 | 0.00 | 0.00 | 0.00 | 67 | 1017.0 |
| 20260506200427 | 54 | 262 | 1.7 | 2.6 | 0.00 | 0.00 | 0.00 | 67 | 1017.0 |
| 20260506195927 | 55 | 278 | 0.9 | 4.3 | 0.00 | 0.00 | 0.00 | 67 | 1017.0 |
| 20260506195429 | 55 | 267 | 1.7 | 2.6 | 0.00 | 0.00 | 0.00 | 67 | 1017.0 |
| 20260506194928 | 55 | 290 | 2.6 | 4.3 | 0.00 | 0.00 | 0.00 | 67 | 1017.0 |
| 20260506194428 | 55 | 267 | 2.6 | 4.3 | 0.00 | 0.00 | 0.00 | 67 | 1017.0 |
| 20260506193928 | 55 | 265 | 1.7 | 2.6 | 0.00 | 0.00 | 0.00 | 67 | 1017.0 |
| 20260506193427 | 55 | 338 | 1.7 | 1.7 | 0.00 | 0.00 | 0.00 | 67 | 1017.0 |
| 20260506192927 | 56 | 260 | 0.9 | 4.3 | 0.00 | 0.00 | 0.00 | 67 | 1017.0 |
| 20260506192428 | 56 | 278 | 1.7 | 1.7 | 0.00 | 0.00 | 0.00 | 67 | 1017.0 |
| 20260506191928 | 56 | 283 | 1.7 | 1.7 | 0.00 | 0.00 | 0.00 | 67 | 1017.0 |
| 20260506191428 | 56 | 271 | 1.7 | 4.3 | 0.00 | 0.00 | 0.00 | 67 | 1016.0 |
| 20260506190928 | 57 | 283 | 2.6 | 5.2 | 0.00 | 0.00 | 0.00 | 67 | 1016.0 |
| 20260506190428 | 57 | 292 | 2.6 | 2.6 | 0.00 | 0.00 | 0.00 | 67 | 1016.0 |
| 20260506185927 | 57 | 270 | 4.3 | 5.2 | 0.00 | 0.00 | 0.00 | 67 | 1016.0 |
| 20260506185427 | 57 | 298 | 1.7 | 2.6 | 0.00 | 0.00 | 0.00 | 67 | 1016.0 |
| 20260506184927 | 57 | 292 | 1.7 | 1.7 | 0.00 | 0.00 | 0.00 | 67 | 1016.0 |
| 20260506184427 | 57 | 279 | 6.1 | 7.0 | 0.00 | 0.00 | 0.00 | 67 | 1016.0 |
| 20260506183927 | 58 | 308 | 6.1 | 8.7 | 0.00 | 0.00 | 0.00 | 67 | 1016.0 |
| 20260506183427 | 58 | 265 | 2.6 | 7.8 | 0.00 | 0.00 | 0.00 | 67 | 1016.0 |
| 20260506182928 | 58 | 301 | 2.6 | 7.0 | 0.00 | 0.00 | 0.00 | 67 | 1015.0 |
| 20260506182428 | 58 | 289 | 2.6 | 4.3 | 0.00 | 0.00 | 0.00 | 67 | 1015.0 |
| 20260506181928 | 58 | 295 | 2.6 | 4.3 | 0.00 | 0.00 | 0.00 | 67 | 1015.0 |
| 20260506181428 | 58 | 262 | 5.2 | 7.0 | 0.00 | 0.00 | 0.00 | 67 | 1014.0 |
| 20260506180928 | 58 | 298 | 2.6 | 5.2 | 0.00 | 0.00 | 0.00 | 67 | 1014.0 |
| 20260506180428 | 58 | 259 | 5.2 | 7.8 | 0.00 | 0.00 | 0.00 | 67 | 1014.0 |
| 20260506175927 | 58 | 296 | 4.3 | 4.3 | 0.00 | 0.00 | 0.00 | 67 | 1015.0 |
| 20260506175427 | 59 | 261 | 6.1 | 7.8 | 0.00 | 0.00 | 0.00 | 67 | 1015.0 |
| 20260506174927 | 59 | 302 | 2.6 | 2.6 | 0.00 | 0.00 | 0.00 | 67 | 1015.0 |
| 20260506174427 | 59 | 275 | 5.2 | 6.1 | 0.00 | 0.00 | 0.00 | 67 | 1015.0 |
| 20260506173927 | 59 | 292 | 5.2 | 7.0 | 0.00 | 0.00 | 0.00 | 68 | 1015.0 |
| 20260506173427 | 59 | 266 | 6.1 | 8.7 | 0.00 | 0.00 | 0.00 | 68 | 1015.0 |
| 20260506172928 | 59 | 252 | 5.2 | 6.1 | 0.00 | 0.00 | 0.00 | 68 | 1015.0 |
| 20260506172428 | 59 | 292 | 6.1 | 5.2 | 0.00 | 0.00 | 0.00 | 68 | 1015.0 |
| 20260506171928 | 59 | 289 | 5.2 | 7.0 | 0.00 | 0.00 | 0.00 | 68 | 1015.0 |
| 20260506171428 | 59 | 257 | 5.2 | 7.8 | 0.00 | 0.00 | 0.00 | 68 | 1015.0 |
| 20260506170928 | 59 | 278 | 4.3 | 8.7 | 0.00 | 0.00 | 0.00 | 67 | 1015.0 |
| 20260506170427 | 59 | 255 | 2.6 | 4.3 | 0.00 | 0.00 | 0.00 | 67 | 1015.0 |
| 20260506165927 | 59 | 219 | 1.7 | 4.3 | 0.00 | 0.00 | 0.00 | 67 | 1015.0 |
| 20260506165427 | 59 | 227 | 1.7 | 5.2 | 0.00 | 0.00 | 0.00 | 67 | 1015.0 |
| 20260506164927 | 59 | 300 | 2.6 | 7.0 | 0.00 | 0.00 | 0.00 | 67 | 1015.0 |
| 20260506164428 | 59 | 277 | 2.6 | 5.2 | 0.00 | 0.00 | 0.00 | 67 | 1015.0 |
| 20260506163928 | 59 | 312 | 1.7 | 2.6 | 0.00 | 0.00 | 0.00 | 67 | 1015.0 |
| 20260506163427 | 59 | 256 | 4.3 | 7.0 | 0.00 | 0.00 | 0.00 | 67 | 1015.0 |
| 20260506162927 | 59 | 240 | 2.6 | 4.3 | 0.00 | 0.00 | 0.00 | 67 | 1015.0 |
| 20260506162427 | 60 | 265 | 4.3 | 5.2 | 0.00 | 0.00 | 0.00 | 67 | 1015.0 |
| 20260506161927 | 60 | 292 | 4.3 | 5.2 | 0.00 | 0.00 | 0.00 | 67 | 1015.0 |
| 20260506161428 | 60 | 248 | 4.3 | 5.2 | 0.00 | 0.00 | 0.00 | 67 | 1014.0 |
| 20260506160928 | 60 | 270 | 2.6 | 5.2 | 0.00 | 0.00 | 0.00 | 67 | 1014.0 |
| 20260506160427 | 60 | 270 | 5.2 | 7.0 | 0.00 | 0.00 | 0.00 | 67 | 1014.0 |
| 20260506155927 | 61 | 248 | 5.2 | 6.1 | 0.00 | 0.00 | 0.00 | 67 | 1014.0 |
| 20260506155429 | 61 | 292 | 6.1 | 5.2 | 0.00 | 0.00 | 0.00 | 67 | 1014.0 |
| 20260506154928 | 61 | 276 | 5.2 | 7.0 | 0.00 | 0.00 | 0.00 | 67 | 1014.0 |
| 20260506154428 | 61 | 293 | 4.3 | 5.2 | 0.00 | 0.00 | 0.00 | 67 | 1014.0 |
| 20260506153928 | 61 | 300 | 2.6 | 6.1 | 0.00 | 0.00 | 0.00 | 68 | 1014.0 |
| 20260506153428 | 61 | 306 | 6.1 | 7.0 | 0.00 | 0.00 | 0.00 | 67 | 1014.0 |
| 20260506152928 | 61 | 297 | 6.1 | 10.4 | 0.00 | 0.00 | 0.00 | 68 | 1014.0 |
| 20260506152428 | 61 | 264 | 5.2 | 7.0 | 0.00 | 0.00 | 0.00 | 67 | 1014.0 |
| 20260506151927 | 61 | 261 | 4.3 | 5.2 | 0.00 | 0.00 | 0.00 | 67 | 1014.0 |
| 20260506151427 | 61 | 252 | 2.6 | 7.8 | 0.00 | 0.00 | 0.00 | 67 | 1014.0 |
| 20260506150927 | 61 | 270 | 5.2 | 7.0 | 0.00 | 0.00 | 0.00 | 67 | 1014.0 |
| 20260506150427 | 61 | 306 | 6.1 | 7.8 | 0.00 | 0.00 | 0.00 | 67 | 1014.0 |
| 20260506145927 | 61 | 292 | 2.6 | 5.2 | 0.00 | 0.04 | 0.00 | 67 | 1014.0 |
| 20260506145428 | 61 | 264 | 5.2 | 7.0 | 0.00 | 0.04 | 0.00 | 67 | 1014.0 |
| 20260506144928 | 61 | 282 | 5.2 | 5.2 | 0.00 | 0.04 | 0.00 | 67 | 1014.0 |
| 20260506144428 | 62 | 282 | 4.3 | 7.8 | 0.00 | 0.04 | 0.00 | 67 | 1013.0 |
| 20260506143928 | 62 | 285 | 5.2 | 12.2 | 0.00 | 0.04 | 0.00 | 67 | 1013.0 |
| 20260506143428 | 62 | 324 | 2.6 | 2.6 | 0.00 | 0.04 | 0.00 | 67 | 1013.0 |
| 20260506142928 | 62 | 248 | 4.3 | 5.2 | 0.00 | 0.04 | 0.00 | 67 | 1014.0 |
| 20260506142428 | 62 | 315 | 7.0 | 7.0 | 0.00 | 0.04 | 0.00 | 67 | 1014.0 |
| 20260506141928 | 62 | 292 | 7.0 | 7.0 | 0.00 | 0.04 | 0.00 | 68 | 1014.0 |